Location: Cazarilh
(42.9578°N, 0.5819°E)
Time: 13:00:51
(UTC+00:00)

OE (NEXTSAT) - Pass Details

Date: 11 December 2019
Orbit: 432 x 442 km, 46.0° (Epoch: 27 January)

Event Time Altitude Azimuth Distance (km) Brightness Sun altitude
Exits shadow 05:25:02 62° 214° (SW) 501 4.4 -20.0°
Maximum altitude 05:25:07 62° 205° (SSW) 500 4.4 -19.9°
Drops below altitude 10° 05:28:35 10° 124° (SE) 1,553 8.2 -19.3°
Sets 05:30:44 0° 121° (ESE) 2,420 9.5 -18.9°
